Port Angeles, WA
on Monday, January 28, 2013

Monday
Previous Day Next Day
Daily Summary
 ActualAverageRecord
Temperature
Mean Temperature °F °F  
Max Temperature 48°F 45°F 56°F (1976)
Min Temperature 39°F 34°F 11°F (1969)
Degree Days
Heating Degree Days 22    
Moisture
Dew Point 36°F   
Average Humidity 75    
Maximum Humidity 86    
Minimum Humidity 65    
Precipitation
Precipitation 0.00 in in in ()
Wind
Wind Speed 12 mph   
Max Wind Speed 18 mph   
Max Gust Speed 30 mph   
Visibility 10 miles   
Events Rain   
Averages and records for this station are not official NWS values.
Key: T is trace of precipitation, MM is missing value
Source: NWS Daily Summary
Seasonal Weather Averages
Time(PST)TemperatureDew PointHumidity Pressure Visibility Wind DirectionWind SpeedGust SpeedPrecipitationEvents Conditions
12:53 AM 42.1°F 33.1°F 70% 30.00 in 10.0 miles West 9.2 mph - N/A   Overcast
1:53 AM 43.0°F 33.1°F 68% 30.00 in 10.0 miles West 12.7 mph - N/A   Overcast
2:53 AM 44.1°F 33.1°F 65% 30.01 in 10.0 miles West 13.8 mph - N/A   Overcast
3:53 AM 44.1°F 33.1°F 65% 30.02 in 10.0 miles West 16.1 mph - N/A   Overcast
4:53 AM 44.1°F 33.1°F 65% 30.02 in 10.0 miles West 13.8 mph 21.9 mph N/A   Overcast
5:53 AM 44.1°F 33.1°F 65% 30.04 in 10.0 miles West 13.8 mph - N/A   Overcast
6:53 AM 44.1°F 33.1°F 65% 30.04 in 10.0 miles West 18.4 mph 23.0 mph N/A   Overcast
7:53 AM 41.0°F 35.1°F 79% 30.05 in 10.0 miles WSW 11.5 mph - 0.00 in   Overcast
8:53 AM 41.0°F 35.1°F 79% 30.04 in 10.0 miles WSW 12.7 mph - 0.00 in   Overcast
9:53 AM 39.9°F 36.0°F 86% 30.04 in 10.0 miles WSW 12.7 mph - 0.00 in Rain Light Rain
10:53 AM 41.0°F 36.0°F 82% 30.04 in 10.0 miles WSW 10.4 mph - 0.00 in Rain Light Rain
11:53 AM 42.1°F 36.0°F 79% 30.04 in 10.0 miles WSW 10.4 mph - 0.00 in Rain Light Rain
12:53 PM 42.1°F 37.0°F 82% 30.01 in 10.0 miles West 11.5 mph - 0.00 in Rain Light Rain
1:53 PM 43.0°F 37.9°F 82% 30.01 in 10.0 miles West 10.4 mph - 0.00 in Rain Light Rain
2:53 PM 43.0°F 37.9°F 82% 30.01 in 10.0 miles West 10.4 mph - 0.00 in Rain Light Rain
3:53 PM 43.0°F 37.9°F 82% 30.01 in 10.0 miles West 8.1 mph - 0.00 in Rain Light Rain
4:53 PM 43.0°F 37.9°F 82% 30.00 in 10.0 miles West 8.1 mph - 0.00 in   Overcast
5:53 PM 43.0°F 37.9°F 82% 30.02 in 10.0 miles WSW 9.2 mph - 0.00 in Rain Light Rain
6:53 PM 45.0°F 36.0°F 71% 30.03 in 10.0 miles West 12.7 mph - 0.00 in   Overcast
7:53 PM 43.0°F 37.0°F 80% 30.03 in 10.0 miles West 11.5 mph - N/A   Overcast
8:53 PM 45.0°F 36.0°F 71% 30.04 in 10.0 miles West 16.1 mph 23.0 mph N/A   Overcast
9:53 PM 45.0°F 37.0°F 74% 30.05 in 10.0 miles WNW 16.1 mph - 0.00 in Rain Light Rain
10:53 PM 46.9°F 36.0°F 66% 30.05 in 10.0 miles West 15.0 mph - 0.00 in   Overcast
11:53 PM 48.0°F 37.0°F 66% 30.08 in 10.0 miles West 16.1 mph 29.9 mph N/A   Overcast
Moon Phase
Jan. 28 Feb. 03 Feb. 10 Feb. 17 Feb. 25
Sunrise:07:46 AM (PST) Moon Rise:07:22 PM (PST)
Sunset:05:08 PM (PST) Moon Set:08:03 AM (PST)

Copyright © 2014 The Weather Underground, Inc.